Tracking 30505 objects as of 23-May-2025
HD Live streaming from Space Station
objects crossing your sky now

PERSEUS M2

Track PERSEUS M2 now!
10-day predictions
PERSEUS M2 is classified as:


NORAD ID: 40037
Int'l Code: 2014-033AD
Perigee: 584.5 km
Apogee: 602.8 km
Inclination: 98.0 °
Period: 96.4 minutes
Semi major axis: 6964 km
RCS: Unknown
Launch date: June 19, 2014
Source: Commonwealth of Independent States (former USSR) (CIS)
Launch site: Orenburg, Russia (OREN)

Uplink (MHz):
Downlink (MHz): 400.190/400.221*
Beacon (MHz):
Mode: 9600bps GFSK
Call sign: CQ
Status:

Your satellite tracking list
Your tracking list is empty




NASA's NSSDC Master Catalog

Two Line Element Set (TLE):
1 40037U 14033AD  25143.55496838  .00001313  00000-0  12970-3 0  9998
2 40037  97.9552  82.9055 0013069 144.6649 215.5439 14.93667758593085
Source of the keplerian elements: AFSPC